Flag for U.S.A. Weather past 2 weeks in Mountain View, California, U.S.A.

Now
72 °F

Passing clouds.


Feels Like: 76 °F
Forecast: 63 / 78 °F
Wind: 5 mph from North

Location: Moffett Field

Current Time: Aug 1, 2015 at 11:47:13 AM

Latest Report: Aug 1, 2015 at 10:56 AM


Visibility: 10 mi

Pressure: 30.03 "Hg

Humidity: 64%

Dew point: 59 °F

Location of Mountain ViewLocation

Historic Weather in Mountain View — Graph

°F

Mountain View temperature yesterday

Maximum temperature yesterday: 75 °F (at 3:56 PM)
Minimum temperature yesterday: 64 °F (at 12:56 AM)
Average temperature yesterday: 68 °F

Past Weeks' High & Low Weather Summary

 TemperatureHumidityPressure
High90 °F (Jul 28, 2:56 PM)90% (Jul 25, 3:56 AM)30.14 "Hg (Jul 25, 3:56 AM)
Low56 °F (Jul 24, 4:56 AM)32% (Jul 28, 1:56 PM)29.79 "Hg (Jul 17, 5:56 PM)
Average69 °F67%29.97 "Hg
* Reported Jul 17 9:56 AM — Aug 1 9:56 AM, Mountain View, Weather by CustomWeather, © 2015

Note: Actual official high and low records may vary slightly from our data, if they occured in-between our weather recording intervals... More about our weather records

Advertising

Mountain View weather history for previous 24 hours

 ConditionsComfort  
Time TempWeatherWind HumidityBarometerVisibility
9:56 AM
Sat, Aug 1
70 °FOvercast.5 mph71%30.03 "Hg10 mi
8:56 AM67 °FOvercast.3 mph76%30.03 "Hg10 mi
7:56 AM66 °FOvercast.5 mph78%30.03 "Hg10 mi
6:56 AM65 °FOvercast.3 mph81%30.02 "Hg10 mi
5:56 AM65 °FOvercast.3 mph81%30.00 "Hg10 mi
4:56 AM64 °FOvercast.No wind84%29.99 "Hg10 mi
3:56 AM65 °FOvercast.3 mph81%29.99 "Hg10 mi
2:56 AM65 °FOvercast.3 mph81%29.99 "Hg10 mi
1:56 AM64 °FPassing clouds.5 mph84%29.99 "Hg10 mi
12:56 AM64 °FClear.5 mph84%30.00 "Hg10 mi
11:56 PM
Fri, Jul 31
64 °FClear.3 mph81%30.01 "Hg10 mi
10:56 PM65 °FClear.3 mph81%30.01 "Hg10 mi
9:56 PM66 °FClear.6 mph78%30.01 "Hg10 mi
8:56 PM67 °FSunny.14 mph73%30.00 "Hg10 mi
7:56 PM68 °FSunny.14 mph78%29.98 "Hg10 mi
6:56 PM70 °FSunny.16 mph76%29.97 "Hg10 mi
5:56 PM72 °FSunny.16 mph68%29.96 "Hg10 mi
4:56 PM74 °FSunny.20 mph67%29.97 "Hg10 mi
3:56 PM75 °FSunny.17 mph64%29.99 "Hg10 mi
2:56 PM73 °FSunny.16 mph64%30.00 "Hg10 mi
1:56 PM73 °FSunny.12 mph66%30.01 "Hg10 mi
12:56 PM69 °FPassing clouds.8 mph73%30.02 "Hg10 mi
11:56 AM73 °FSunny.3 mph66%30.03 "Hg10 mi
Weather by CustomWeather, © 2015

See weather overviewHow to use our weather pages